Cartersville, GA

11:11 PM EST on November 19, 2019 (GMT -0500)
Cartersville

Weather History for KVPC - September, 2019

Change the Weather History Date:

Saturday, September 7, 2019

  Actual Average Record
Temperature  
Mean Temperature 82 °F 75 °F  
Max Temperature 97 °F 86 °F 95 °F (2016)
Min Temperature 66 °F 63 °F 47 °F (2017)
Degree Days  
Heating Degree Days 0 0  
Month to date heating degree days 0 0  
Since 1 July heating degree days 0 0  
Cooling Degree Days 16 10  
Month to date cooling degree days 110 73  
Year to date cooling degree days 1682 1338  
Growing Degree Days 32 (Base 50)    
Moisture  
Dew Point 65 °F    
Average Humidity 62    
Maximum Humidity 87    
Minimum Humidity 37    
Precipitation  
Precipitation 0.00 in 0.11 in 2.17 in (2004)
Month to date precipitation 0.00 0.59  
Year to date precipitation 31.54 35.18  
Sea Level Pressure  
Sea Level Pressure 29.93 in    
Wind  
Wind Speed 1 mph ()    
Max Wind Speed 12 mph    
Max Gust Speed 18 mph    
Visibility 10.0 miles    
Events      
T = Trace of Precipitation, MM = Missing Value Source: Averaged Metar Reports

Daily Weather History Graph

Daily Weather History Graph

Search for Another Location

Airport or City:

Astronomy

Sep. 07, 2019 Rise Set
Actual Time 7:16 AM EDT 7:57 PM EDT
Civil Twilight 6:51 AM EDT 8:22 PM EDT
Nautical Twilight 6:21 AM EDT 8:52 PM EDT
Astronomical Twilight 5:51 AM EDT 9:22 PM EDT
Moon 3:59 PM EDT (9/7) 1:20 AM EDT (9/7)
Length of Visible Light 13h 31m
Length of Day
12h 40m
Waxing Gibbous, 65% of the Moon is Illuminated
Sep 7
Waxing Gibbous
Sep 14
Full
Sep 21
Last Quarter
Sep 28
New
Oct 5
First Quarter

Hourly Weather History & Observations

Time (EDT) Temp. Heat Index Dew Point Humidity Pressure Visibility Wind Dir Wind Speed Gust Speed Precip Events Conditions
12:53 AM 69.1 °F - 62.1 °F 78% 29.92 in 10.0 mi Calm Calm - N/A   Clear
1:53 AM 69.1 °F - 62.1 °F 78% 29.93 in 10.0 mi Calm Calm - N/A   Clear
2:53 AM 70.0 °F - 62.1 °F 76% 29.93 in 10.0 mi Calm Calm - N/A   Clear
3:53 AM 68.0 °F - 63.0 °F 84% 29.93 in 10.0 mi Calm Calm - N/A   Clear
4:53 AM 66.9 °F - 62.1 °F 84% 29.93 in 10.0 mi Calm Calm - N/A   Clear
5:53 AM 68.0 °F - 63.0 °F 84% 29.94 in 10.0 mi Calm Calm - N/A   Clear
6:53 AM 68.0 °F - 63.0 °F 84% 29.94 in 10.0 mi Calm Calm - N/A   Clear
7:53 AM 69.1 °F - 64.0 °F 84% 29.96 in 10.0 mi Calm Calm - N/A   Clear
8:53 AM 75.0 °F - 66.0 °F 73% 29.97 in 10.0 mi Calm Calm - N/A   Partly Cloudy
9:53 AM 80.1 °F 82.7 °F 68.0 °F 67% 29.97 in 10.0 mi Calm Calm - N/A   Clear
10:53 AM 84.9 °F 89.4 °F 70.0 °F 61% 29.96 in 10.0 mi Variable 3.5 mph - N/A   Clear
11:53 AM 88.0 °F 93.8 °F 71.1 °F 57% 29.96 in 10.0 mi Variable 6.9 mph - N/A   Clear
12:53 PM 91.9 °F 97.4 °F 70.0 °F 48% 29.94 in 10.0 mi Variable 3.5 mph - N/A   Partly Cloudy
1:53 PM 93.9 °F 99.1 °F 69.1 °F 44% 29.92 in 10.0 mi North - - N/A   Partly Cloudy
2:53 PM 93.0 °F 97.4 °F 68.0 °F 44% 29.90 in 10.0 mi Variable 4.6 mph - N/A   Clear
3:53 PM 95.0 °F 100.7 °F 69.1 °F 43% 29.88 in 10.0 mi Variable 3.5 mph - N/A   Mostly Cloudy
4:53 PM 96.1 °F 99.3 °F 66.0 °F 37% 29.87 in 10.0 mi Variable 3.5 mph - N/A   Partly Cloudy
5:53 PM 93.9 °F 95.6 °F 64.0 °F 37% 29.87 in 10.0 mi North - - N/A   Partly Cloudy
6:53 PM 91.9 °F 93.3 °F 64.0 °F 39% 29.88 in 10.0 mi NNW 3.5 mph - N/A   Clear
7:53 PM 87.1 °F 88.3 °F 64.0 °F 46% 29.90 in 10.0 mi Calm Calm - N/A   Clear
8:53 PM 80.1 °F 81.9 °F 64.9 °F 60% 29.91 in 10.0 mi Calm Calm - N/A   Clear
9:53 PM 79.0 °F - 62.1 °F 56% 29.93 in 10.0 mi Calm Calm - N/A   Clear
10:53 PM 73.9 °F - 63.0 °F 68% 29.95 in 10.0 mi Calm Calm - N/A   Partly Cloudy
11:53 PM 73.9 °F - 60.1 °F 62% 29.95 in 10.0 mi Calm Calm - N/A   Clear